User: anonymous   Login
Location: Unspecified
(0.0000°N, 0.0000°E)
Time: 10:13:37
(UTC+00:00)
Language:

Tiros 1 despin weight - Orbit

View from above orbital plane
View from above orbital plane
View from above satellite
View from above satellite

Ground track
Ground track

The orbit data is extracted from the following two-line orbital elements,

1 00115U 60002D   15024.37599042  .00001231  00000-0  18123-3 0  5638
2 00115 048.1674 023.9698 0035791 210.0001 292.5070 14.81554904920428
Epoch (UTC): 24 January 2015 09:01:25
Eccentricity: 0.0035791
inclination: 48.1674°
perigee height: 599 km
apogee height: 649 km
right ascension of ascending node: 23.9698°
argument of perigee: 210.0001°
revolutions per day: 14.81554904
mean anomaly at epoch: 292.5070°
orbit number at epoch: 92042

The dashed part of the orbit path shows where the satellite is in the earth's shadow,  

DLR